Flag for Canada Weather past 2 weeks in Ottawa, Ontario, Canada

Now
79 °F

Partly sunny.


Feels Like: 80 °F
Forecast: N/A
Wind: 17 mph from Southwest

Location: Ottawa Int'L. Ont.

Current Time: Jul 25, 2014 at 5:40:16 PM

Latest Report: Jul 25, 2014 at 4:00 PM


Visibility: 15 mi

Pressure: 29.90 "Hg

Humidity: 48%

Dew point: 57 °F

Location of OttawaLocation

Historic Weather in Ottawa — Graph

°F

Ottawa temperature yesterday

Maximum temperature yesterday: 73 °F (at 3:00 PM)
Minimum temperature yesterday: 54 °F (at 5:00 AM)
Average temperature yesterday: 64 °F

Past Weeks' High & Low Weather Summary

 TemperatureHumidityPressure
High84 °F (Jul 22, 12:00 PM)100% (Jul 13, 11:00 AM)30.26 "Hg (Jul 13, 11:00 AM)
Low50 °F (Jul 11, 5:00 AM)36% (Jul 10, 6:00 PM)29.66 "Hg (Jul 13, 4:00 PM)
Average68 °F72%29.99 "Hg
* Reported Jul 10 4:00 PM — Jul 25 4:00 PM, Ottawa, Weather by CustomWeather, © 2014

Note: Actual official high and low records may vary slightly from our data, if they occured in-between our weather recording intervals... More about our weather records

Advertising

Ottawa weather history for previous 24 hours

 ConditionsComfort  
Time TempWeatherWind HumidityBarometerVisibility
4:00 PM
Jul 25
79 °FPartly sunny.17 mph48%29.90 "Hg15 mi
3:00 PM79 °FPartly sunny.14 mph48%29.91 "Hg15 mi
2:00 PM79 °FPartly sunny.13 mph54%29.92 "Hg15 mi
1:00 PM75 °FPartly sunny.8 mph57%29.95 "Hg15 mi
12:00 PM73 °FPartly sunny.7 mph61%29.96 "Hg15 mi
11:00 AM72 °FPartly sunny.8 mph61%29.96 "Hg15 mi
10:00 AM68 °FPartly sunny.10 mph64%29.96 "Hg15 mi
9:00 AM64 °FPartly sunny.8 mph73%29.97 "Hg15 mi
8:00 AM63 °FScattered clouds.6 mph77%29.97 "Hg15 mi
7:00 AM57 °FPartly sunny.5 mph88%29.96 "Hg15 mi
6:00 AM55 °FPassing clouds.6 mph88%29.95 "Hg15 mi
5:00 AM57 °FPartly cloudy.7 mph88%29.93 "Hg15 mi
4:00 AM59 °FMostly cloudy.8 mph82%29.93 "Hg15 mi
3:00 AM61 °FPassing clouds.6 mph77%29.95 "Hg15 mi
2:00 AM61 °FPassing clouds.7 mph77%29.95 "Hg15 mi
1:00 AM59 °FClear.7 mph82%29.94 "Hg15 mi
12:00 AM61 °FPassing clouds.7 mph77%29.94 "Hg15 mi
11:00 PM
Jul 24
63 °FPassing clouds.6 mph73%29.94 "Hg15 mi
10:00 PM63 °FClear.5 mph73%29.92 "Hg15 mi
9:00 PM66 °FPassing clouds.5 mph64%29.91 "Hg15 mi
8:00 PM68 °FSunny.6 mph64%29.92 "Hg15 mi
7:00 PM72 °FPassing clouds.7 mph53%29.92 "Hg15 mi
6:00 PM73 °FPassing clouds.7 mph50%29.93 "Hg15 mi
5:00 PM73 °FPassing clouds.6 mph47%29.94 "Hg15 mi
Weather by CustomWeather, © 2014

See weather overviewHow to use our weather pages